CAPE
7 12 9 7 15 8 0 0 0 0 0 0 0 0 0 0 0 0 0 0 0 0 0 0 0 0 0 0 0 0 43 13 21 69 11 15 28 66 112 297 560 511 662 458 701 582 485 1552 173 191 128 27 622 961
7 9 6 8 14 11 0 0 0 0 0 0 0 0 0 0 0 0 0 0 0 0 0 0 0 0 0 0 0 0 1 121 62 247 268 311 111 347 525 344 426 386 1056 154 918 892 673 1453 1974 2606 2276 2476 2034 1784
6 6 7 15 10 3 0 0 0 0 0 0 0 0 0 0 0 0 0 0 0 0 0 0 0 0 0 0 0 0 1 0 14 0 78 84 564 248 276 95 308 603 129 23 441 1475 1052 827 2117 2013 2176 1841 1344 1407
5 6 10 17 10 1 0 0 0 0 0 0 0 0 0 0 0 0 0 0 0 0 0 1 0 0 0 0 0 0 0 0 0 0 4 54 109 89 70 17 7 103 221 711 1294 1444 979 1965 1791 2220 2177 2191 1143 1174
4 8 15 10 7 0 0 0 0 0 0 0 0 0 0 0 0 0 0 0 0 0 0 0 0 0 0 0 0 0 0 0 0 0 0 5 57 2 0 70 41 181 353 548 1129 1548 1823 2298 2364 1900 1861 1577 1428 1544
3 9 15 7 1 0 0 0 0 0 0 0 0 0 0 0 0 0 0 0 0 0 0 0 0 0 0 0 0 0 0 0 0 0 29 9 56 0 0 18 38 116 95 4 215 1561 2094 2017 1950 1699 1731 1724 1712 1779
5 19 12 17 2 0 0 0 0 0 0 0 0 0 0 0 0 0 0 0 0 0 0 0 0 0 0 0 0 0 0 0 0 0 0 6 0 0 0 10 290 209 0 101 115 1108 1251 1298 1942 1636 1290 1217 859 749
7 16 4 4 2 0 0 0 0 0 0 0 0 0 0 0 0 0 0 0 0 0 0 0 13 6 0 0 0 0 0 0 0 0 0 5 0 0 0 0 16 0 3 216 155 248 886 1772 884 831 443 229 130 116
14 14 1 2 2 0 0 0 0 0 0 0 0 0 0 0 0 1 0 0 0 0 0 0 1 75 9 0 29 41 21 5 7 0 0 0 12 0 1 23 0 251 426 342 317 486 298 713 1044 105 0 72 205 38
15 11 2 3 6 5 0 0 0 0 0 0 0 0 0 0 0 0 0 0 0 0 0 0 0 25 110 23 8 20 25 31 4 13 20 1 3 0 0 0 71 40 40 119 577 871 360 425 532 1 141 129 3 64
10 19 10 4 9 16 19 6 0 0 0 0 0 17 1 0 0 0 4 0 0 0 0 0 0 1 66 41 243 90 95 124 195 80 33 31 29 7 297 372 103 54 34 67 265 592 463 744 494 305 113 220 80 101
30 7 8 7 13 24 27 6 0 0 0 0 0 0 0 0 2 0 0 0 1 0 0 0 0 0 140 75 240 243 45 90 99 28 404 308 1206 597 343 159 84 71 97 169 182 202 191 213 135 250 204 218 192 162
4 4 9 15 30 34 28 0 0 0 0 0 0 1 2 0 0 0 0 0 0 0 1 0 0 0 2 1 21 277 330 119 303 264 336 616 1043 745 431 209 68 9 19 34 24 15 16 14 27 38 106 99 93 108
18 6 6 27 45 46 29 2 0 0 0 4 11 0 0 0 0 0 0 11 41 19 7 8 32 0 5 50 39 42 107 226 223 0 2 617 877 634 491 323 236 223 121 43 31 23 21 32 32 23 56 77 100 101
23 16 19 19 30 69 38 0 0 0 0 17 5 0 0 4 0 1 75 104 56 61 109 52 142 30 70 59 203 207 215 151 203 327 535 842 1181 647 514 434 303 452 318 286 218 65 85 84 76 86 119 77 61 47
34 27 26 50 81 64 1 0 0 0 6 18 7 3 2 1 12 15 7 35 18 48 43 95 92 52 129 141 49 123 45 158 365 560 556 800 573 534 444 470 400 494 285 193 146 127 111 103 100 59 70 130 30 5
36 45 63 64 57 16 1 0 1 8 14 5 1 5 9 19 26 39 67 111 92 192 144 125 105 135 74 83 140 184 245 577 394 364 258 222 617 552 377 393 336 221 198 219 78 105 117 220 158 161 169 127 80 56
45 85 64 41 7 0 6 1 24 9 3 0 28 8 25 59 46 73 81 178 155 174 206 185 349 269 162 84 273 2 7 831 946 547 1016 1015 570 471 359 252 194 177 227 138 310 212 329 233 95 68 110 82 132 31
36 57 13 9 13 30 42 31 37 12 0 0 27 40 26 22 65 53 81 121 132 284 311 281 129 199 291 407 383 810 682 688 629 669 548 715 455 286 203 181 214 396 300 177 138 320 542 201 73 56 25 58 45 20
5 0 0 0 0 29 10 16 1 54 25 25 45 44 42 41 71 66 94 136 100 158 121 133 153 418 150 0 257 409 394 278 85 70 617 241 455 134 308 192 186 366 448 204 251 3 250 53 172 55 20 4 33 12
7 1 0 0 22 34 65 0 12 29 89 53 48 80 59 65 102 271 162 114 107 57 158 100 258 24 584 455 312 274 524 290 172 83 46 7 3 6 36 121 162 234 156 95 226 33 116 105 117 66 46 43 40 45
2 0 0 0 22 62 74 59 78 78 51 74 65 87 160 251 296 259 169 115 115 139 233 366 472 432 481 627 542 407 218 100 32 1 4 6 18 35 117 24 70 36 72 180 242 124 85 70 23 3 27 21 7 47
0 0 30 23 44 41 31 68 69 81 71 77 122 70 223 254 267 292 110 75 95 406 348 470 544 394 192 59 18 78 64 55 23 30 110 59 53 46 80 38 6 40 68 64 308 64 1 0 1 0 35 44 39 38
0 88 56 36 61 53 82 107 176 136 194 165 154 81 65 133 88 77 92 55 110 171 47 182 7 0 93 284 65 291 147 117 163 144 80 39 31 12 22 30 70 140 79 39 0 0 9 34 5 33 55 40 36 31
39 1 4 0 60 41 28 60 77 43 74 126 77 75 57 36 62 192 217 75 33 72 82 94 17 22 49 196 86 35 18 21 57 36 1 3 23 14 44 135 122 104 74 35 27 23 33 54 43 30 32 30 5 23
1 11 0 46 65 40 42 34 16 30 15 32 32 51 6 43 33 0 41 146 67 11 8 216 333 370 168 58 68 20 65 5 14 6 18 22 28 64 47 25 35 60 74 57 36 40 52 40 17 32 29 21 0 10
1 69 83 70 51 72 41 42 39 28 19 18 38 41 22 7 1 31 104 161 282 195 201 131 121 268 93 75 43 6 47 44 133 28 37 39 58 30 37 31 53 49 74 25 23 19 23 25 28 29 35 45 46 34
10 52 36 29 22 32 19 26 20 15 12 19 14 20 21 18 29 204 110 36 34 32 55 44 33 28 56 16 15 31 51 65 97 86 10 40 69 36 47 60 68 0 12 16 35 44 30 31 41 47 25 29 37 39
19 18 23 15 22 12 20 17 20 23 26 32 30 26 65 60 36 35 25 35 37 92 73 52 6 4 10 22 44 29 78 91 50 57 52 42 54 28 35 42 1 0 1 0 0 0 0 5 27 12 11 27 56 62
23 8 14 25 14 8 21 22 8 56 49 15 20 21 14 14 24 37 43 35 65 58 32 20 22 1 37 68 64 72 60 74 89 65 96 61 67 66 71 76 68 51 54 54 43 17 0 1 3 11 16 49 46 92
32 15 11 13 12 14 66 78 57 49 20 28 1 8 7 17 22 11 48 58 40 57 27 29 52 78 65 59 35 33 26 48 57 39 54 20 27 55 81 64 59 67 63 59 64 62 57 45 60 57 56 43 95 45
1 0 2 2 16 21 40 25 17 21 27 28 25 12 16 22 31 8 4 2 24 49 12 7 92 61 43 40 40 52 20 19 72 89 65 80 56 94 68 54 63 86 80 90 71 87 86 100 101 74 92 73 55 52
9 6 2 19 13 2 1 19 28 25 15 46 41 13 15 32 22 17 25 24 62 79 65 22 5 12 73 59 79 55 15 3 0 0 0 0 0 0 10 38 56 84 46 63 64 79 49 28 44 32 20 15 13 14
CIN
-0 -0 -0 -0 -0 -0 -0 -0 -0 -0 -0 -0 -0 -0 -0 -0 -0 -0 -0 -0 -0 -0 -0 -0 -0 -0 -0 -0 -0 -0 -17 -4 -8 -4 -10 -3 -0 -13 -9 -1 -4 -2 -0 -0 -0 -0 -5 -73 -174 -303 -593 -334 -38 -38
-0 -0 -0 -0 -0 -0 -0 -0 -0 -0 -0 -0 -0 -0 -0 -0 -0 -0 -0 -0 -0 -0 -0 -0 -0 -0 -0 -0 -0 -0 -0 -5 -33 -26 -15 -1 -0 -6 -25 -10 -9 -9 -106 -252 -13 -42 -165 -6 -10 -3 -15 -2 -5 -3
-0 -0 -0 -1 -0 -0 -0 -0 -0 -0 -0 -0 -0 -0 -0 -0 -0 -0 -0 -0 -0 -0 -0 -0 -0 -0 -0 -0 -0 -0 -6 -0 -48 -0 -79 -12 -11 -61 -67 -83 -16 -27 -360 -360 -0 -18 -53 -57 -10 -34 -17 -3 -6 -20
-0 -0 -0 -1 -9 -0 -0 -0 -0 -0 -0 -0 -0 -0 -0 -0 -0 -0 -0 -0 -0 -0 -0 -2 -0 -0 -0 -0 -0 -0 -0 -0 -0 -0 -24 -11 -1 -47 -123 -204 -203 -33 -47 -32 -1 -23 -27 -37 -3 -1 -11 -5 -17 -14
-0 -0 -0 -3 -9 -0 -0 -0 -0 -0 -0 -0 -0 -0 -0 -0 -0 -0 -0 -0 -0 -0 -0 -0 -0 -0 -0 -0 -0 -0 -0 -0 -0 -0 -0 -19 -2 -10 -14 -103 -89 -56 -87 -40 -0 -1 -2 -5 -10 -9 -0 -25 -3 -0
-0 -0 -0 -8 -0 -0 -0 -0 -0 -0 -0 -0 -0 -0 -0 -0 -0 -0 -0 -0 -0 -0 -0 -0 -0 -0 -0 -0 -0 -0 -0 -0 -0 -0 -11 -12 -9 -0 -0 -16 -64 -32 -228 -64 -144 -0 -0 -1 -7 -1 -0 -1 -1 -0
-0 -0 -2 -23 -9 -0 -0 -0 -0 -0 -0 -0 -0 -0 -0 -0 -0 -0 -0 -0 -0 -0 -0 -0 -0 -0 -0 -0 -0 -0 -0 -0 -0 -0 -0 -2 -0 -0 -0 -21 -13 -54 -0 -112 -104 -0 -1 -8 -0 -4 -103 -81 -133 -170
-0 -0 -5 -17 -0 -0 -0 -0 -0 -0 -0 -0 -0 -0 -0 -0 -0 -0 -0 -0 -0 -0 -0 -0 -0 -0 -0 -0 -0 -0 -0 -0 -0 -0 -0 -0 -0 -0 -0 -0 -30 -0 -36 -47 -62 -26 -1 -0 -130 -103 -103 -109 -181 -200
-0 -2 -0 -0 -0 -0 -0 -0 -0 -0 -0 -0 -0 -0 -0 -0 -0 -0 -0 -0 -0 -0 -0 -0 -0 -2 -18 -0 -0 -1 -0 -0 -1 -0 -0 -0 -0 -0 -17 -97 -6 -26 -11 -68 -36 -4 -2 -1 -69 -163 -0 -188 -48 -95
-0 -1 -0 -0 -0 -0 -0 -0 -0 -0 -0 -0 -0 -0 -0 -0 -0 -0 -0 -0 -0 -0 -0 -0 -0 -1 -1 -0 -0 -1 -1 -0 -0 -0 -0 -0 -0 -0 -0 -0 -6 -19 -38 -15 -7 -0 -0 -1 -112 -7 -159 -144 -13 -55
-5 -11 -18 -0 -0 -0 -0 -0 -0 -0 -0 -0 -0 -1 -19 -0 -0 -0 -0 -0 -0 -0 -0 -0 -0 -0 -0 -0 -24 -57 -19 -99 -0 -1 -1 -0 -0 -1 -6 -7 -11 -30 -30 -22 -1 -2 -0 -7 -53 -70 -83 -72 -8 -9
-12 -17 -21 -0 -0 -0 -0 -0 -0 -0 -0 -0 -6 -0 -0 -0 -0 -0 -0 -0 -0 -0 -0 -0 -0 -0 -2 -4 -6 -57 -60 -4 -13 -214 -0 -0 -3 -5 -15 -42 -28 -28 -0 -3 -3 -2 -1 -0 -5 -54 -53 -0 -3 -1
-0 -0 -0 -0 -0 -0 -0 -0 -0 -0 -0 -0 -0 -0 -0 -0 -0 -0 -0 -0 -0 -0 -1 -0 -0 -0 -0 -0 -1 -1 -7 -11 -0 -0 -1 -28 -1 -1 -0 -2 -8 -3 -1 -17 -17 -24 -8 -13 -8 -2 -11 -18 -3 -1
-0 -2 -1 -0 -0 -0 -0 -17 -0 -0 -0 -0 -0 -0 -0 -0 -0 -0 -0 -0 -0 -0 -1 -0 -0 -0 -0 -5 -0 -0 -0 -0 -3 -0 -3 -1 -3 -2 -1 -2 -7 -16 -2 -1 -1 -59 -43 -43 -38 -6 -4 -1 -0 -0
-0 -1 -1 -2 -0 -0 -0 -0 -0 -0 -0 -0 -0 -0 -0 -1 -0 -0 -0 -4 -2 -1 -1 -0 -0 -0 -0 -1 -3 -8 -1 -1 -1 -0 -0 -12 -3 -0 -4 -3 -0 -6 -3 -2 -2 -1 -1 -0 -0 -1 -0 -2 -0 -3
-0 -0 -0 -0 -0 -0 -8 -0 -0 -0 -0 -1 -0 -0 -0 -0 -0 -0 -0 -0 -1 -0 -2 -0 -1 -0 -20 -4 -1 -1 -0 -11 -3 -4 -13 -4 -0 -2 -1 -3 -3 -1 -0 -0 -7 -8 -9 -2 -0 -2 -2 -7 -12 -6
-3 -0 -0 -0 -0 -11 -73 -9 -30 -3 -0 -0 -0 -1 -0 -1 -0 -1 -0 -0 -0 -2 -0 -0 -2 -1 -0 -24 -0 -0 -0 -3 -3 -9 -24 -8 -1 -1 -0 -1 -0 -2 -7 -9 -26 -23 -8 -1 -6 -9 -6 -0 -4 -5
-0 -0 -0 -1 -23 -7 -52 -10 -0 -0 -1 -0 -0 -0 -0 -7 -32 -30 -0 -10 -0 -0 -0 -0 -0 -0 -0 -0 -5 -121 -0 -6 -1 -11 -4 -1 -1 -0 -0 -0 -3 -2 -0 -5 -0 -1 -1 -0 -2 -15 -12 -28 -8 -2
-0 -0 -20 -63 -58 -6 -0 -0 -0 -0 -0 -0 -0 -0 -0 -1 -9 -1 -0 -1 -0 -0 -0 -1 -2 -0 -3 -17 -12 -2 -0 -0 -4 -1 -3 -1 -0 -0 -0 -0 -3 -1 -0 -1 -0 -0 -0 -0 -33 -22 -0 -27 -0 -1
-14 -3 -0 -25 -0 -2 -0 -0 -0 -0 -0 -1 -1 -0 -0 -1 -0 -0 -1 -0 -0 -0 -0 -1 -0 -6 -46 -0 -23 -0 -0 -0 -4 -23 -14 -0 -2 -5 -0 -0 -0 -0 -0 -0 -0 -3 -0 -26 -5 -3 -3 -0 -0 -0
-9 -1 -1 -0 -1 -0 -0 -0 -1 -0 -0 -0 -1 -0 -0 -23 -17 -1 -0 -1 -0 -2 -0 -2 -0 -149 -29 -7 -1 -1 -0 -2 -0 -6 -1 -0 -14 -0 -5 -0 -0 -0 -0 -3 -0 -1 -1 -12 -13 -4 -1 -0 -4 -0
-0 -0 -0 -0 -22 -0 -0 -0 -0 -1 -4 -0 -0 -0 -0 -0 -0 -5 -0 -0 -0 -1 -0 -2 -0 -0 -1 -0 -0 -2 -3 -19 -31 -0 -0 -0 -8 -13 -5 -0 -0 -0 -0 -0 -0 -1 -0 -7 -21 -63 -45 -6 -4 -1
-0 -0 -0 -0 -0 -6 -0 -0 -0 -1 -5 -0 -0 -5 -0 -0 -0 -5 -0 -1 -3 -7 -3 -1 -6 -25 -17 -36 -41 -10 -19 -32 -56 -2 -5 -29 -12 -0 -19 -8 -4 -10 -11 -32 -1 -2 -9 -0 -26 -15 -8 -6 -8 -2
-0 -1 -0 -0 -1 -6 -0 -0 -0 -0 -0 -0 -0 -0 -0 -0 -0 -0 -0 -4 -1 -2 -18 -16 -42 -0 -9 -3 -8 -2 -18 -19 -6 -6 -19 -1 -6 -17 -21 -20 -6 -5 -12 -0 -0 -21 -14 -6 -36 -3 -4 -0 -0 -0
-4 -16 -1 -0 -0 -0 -1 -0 -1 -0 -0 -1 -2 -0 -0 -1 -0 -12 -6 -2 -0 -1 -1 -11 -36 -0 -11 -6 -22 -52 -2 -4 -32 -1 -26 -36 -24 -51 -36 -10 -4 -0 -0 -0 -4 -2 -0 -0 -0 -0 -1 -1 -5 -0
-0 -0 -5 -0 -1 -8 -2 -0 -0 -0 -0 -0 -0 -1 -1 -0 -1 -0 -1 -0 -0 -3 -2 -0 -1 -2 -0 -12 -15 -10 -23 -26 -34 -7 -30 -55 -52 -4 -1 -1 -0 -0 -1 -4 -0 -0 -1 -3 -1 -0 -1 -5 -3 -12
-3 -0 -0 -3 -0 -0 -0 -0 -0 -0 -0 -0 -0 -1 -0 -0 -0 -0 -2 -10 -5 -3 -1 -2 -0 -4 -5 -1 -6 -69 -45 -18 -17 -33 -14 -1 -2 -9 -0 -0 -0 -10 -4 -0 -3 -7 -0 -1 -0 -0 -0 -2 -0 -0
-0 -1 -0 -0 -1 -0 -0 -0 -0 -0 -0 -0 -0 -0 -0 -0 -0 -2 -5 -1 -1 -0 -2 -2 -0 -13 -6 -34 -57 -62 -31 -31 -22 -3 -13 -6 -0 -25 -6 -8 -1 -0 -15 -5 -1 -0 -2 -2 -2 -0 -0 -2 -0 -0
-0 -0 -0 -1 -0 -1 -0 -1 -0 -0 -0 -0 -0 -0 -0 -0 -0 -0 -0 -0 -7 -11 -12 -10 -43 -62 -71 -49 -37 -49 -13 -8 -2 -18 -8 -0 -0 -21 -14 -1 -0 -0 -0 -0 -0 -0 -0 -4 -0 -1 -0 -0 -0 -1
-0 -1 -0 -0 -0 -0 -0 -0 -6 -0 -0 -3 -0 -0 -1 -0 -0 -0 -0 -0 -16 -0 -1 -4 -0 -7 -27 -5 -0 -2 -0 -3 -0 -0 -0 -0 -2 -0 -0 -0 -1 -0 -0 -1 -1 -8 -0 -13 -4 -17 -10 -0 -5 -12
-4 -4 -3 -2 -0 -0 -0 -2 -0 -0 -0 -0 -8 -0 -0 -1 -2 -15 -0 -0 -1 -0 -15 -9 -1 -0 -0 -8 -14 -15 -2 -0 -4 -1 -0 -2 -2 -5 -10 -0 -1 -1 -0 -1 -1 -2 -0 -8 -0 -0 -0 -3 -7 -5
-0 -0 -0 -0 -0 -1 -1 -2 -1 -0 -0 -0 -0 -1 -0 -0 -0 -0 -15 -3 -8 -11 -28 -40 -39 -9 -6 -18 -26 -7 -17 -1 -10 -1 -5 -3 -6 -1 -0 -1 -0 -1 -0 -0 -0 -0 -1 -0 -0 -1 -0 -2 -1 -1
-0 -0 -0 -0 -0 -1 -1 -0 -0 -0 -16 -0 -0 -2 -9 -0 -0 -12 -29 -42 -13 -7 -19 -74 -145 -161 -46 -4 -3 -15 -0 -13 -0 -0 -0 -0 -0 -0 -15 -0 -6 -0 -1 -0 -0 -0 -7 -1 -0 -3 -4 -1 -0 -0
Wind_Speed
28 25 23 21 19 15 13 11 9 7 6 7 10 13 15 18 18 11 7 4 5 8 4 6 7 6 7 4 8 11 9 8 8 10 10 13 8 4 9 13 14 10 10 12 13 17 15 15 12 4 7 18 15 14
29 26 23 21 19 16 13 11 9 8 7 7 8 11 14 16 18 16 5 3 5 6 8 7 7 5 6 4 6 8 8 5 7 8 8 8 6 6 10 11 13 5 4 2 10 4 3 11 10 12 2 0 9 9
29 26 23 20 19 16 14 12 10 9 7 7 7 9 12 14 16 12 8 6 6 7 9 11 11 4 5 3 7 6 5 6 3 5 6 6 5 6 5 5 16 5 5 8 23 5 6 5 9 7 5 4 7 9
29 26 23 21 19 17 15 12 11 9 8 7 7 8 11 13 15 13 7 4 6 7 6 10 5 5 3 3 3 2 4 5 7 7 9 8 4 2 1 4 7 13 8 8 6 13 12 13 6 7 5 4 6 5
29 26 24 21 20 18 16 13 11 10 9 7 7 8 10 13 15 11 10 3 3 6 6 3 6 5 10 4 4 2 3 5 6 5 5 6 3 5 5 3 5 17 15 9 4 6 10 8 3 7 7 5 8 8
28 26 23 21 19 18 17 14 12 11 9 7 7 8 10 12 14 7 5 4 9 7 6 4 8 6 5 6 6 4 5 5 4 4 6 3 11 3 4 4 9 4 12 10 13 15 15 11 5 6 3 10 8 8
27 25 24 22 21 19 17 15 12 10 9 7 7 9 10 11 8 6 7 5 10 6 5 4 4 7 7 6 8 7 8 6 3 4 3 3 1 3 4 8 11 8 9 15 25 6 8 8 8 6 19 17 19 17
25 25 24 23 22 20 17 15 12 10 8 7 7 9 12 14 13 7 3 8 5 5 5 5 3 8 8 6 6 6 3 5 5 5 3 3 5 1 4 8 11 5 9 11 15 25 13 12 23 22 18 18 17 15
22 23 23 23 22 19 17 14 12 10 7 6 7 10 6 5 5 5 3 3 4 5 6 5 8 5 5 7 6 3 3 6 5 6 7 5 7 6 8 11 12 7 4 7 12 13 12 9 21 16 12 10 9 3
20 21 25 25 23 19 16 13 12 9 6 4 5 6 6 6 7 4 3 5 5 5 5 6 9 2 6 5 4 3 1 6 8 9 9 8 8 12 13 12 4 4 5 4 2 10 9 8 18 12 10 10 13 8
21 22 24 25 23 18 14 14 13 10 3 5 6 2 6 3 4 5 4 4 5 4 5 6 10 8 5 2 6 7 5 8 7 5 6 7 10 10 10 6 3 1 3 5 4 6 7 11 11 11 2 13 7 8
23 28 28 27 24 22 18 15 14 7 2 7 5 4 4 5 4 4 4 4 5 6 5 6 6 6 3 4 5 5 2 6 5 2 4 7 6 11 9 6 3 6 5 7 7 7 7 9 7 13 13 4 6 4
21 23 28 25 23 21 19 15 14 8 12 5 5 5 2 3 1 6 7 5 5 2 4 4 3 3 3 3 4 3 2 5 9 4 5 3 6 8 6 7 7 4 3 4 4 3 5 3 6 7 4 4 6 5
20 20 17 18 19 19 16 12 10 5 5 5 5 3 4 5 6 6 8 7 5 7 7 8 5 4 4 3 3 4 4 4 2 2 6 1 5 7 7 7 7 8 9 7 5 6 7 7 7 6 7 6 4 4
20 21 18 15 16 17 14 11 8 4 6 5 5 4 8 7 6 7 8 3 0 0 3 2 4 4 2 3 4 3 4 5 4 2 3 3 6 6 5 4 3 6 5 6 7 9 9 9 7 6 7 8 7 9
21 18 5 14 17 15 12 8 5 5 4 3 4 6 6 5 5 3 3 5 7 5 3 2 2 4 4 7 6 6 5 2 3 3 2 3 5 6 3 5 5 7 6 5 5 6 6 7 8 7 7 9 9 8
9 3 18 16 15 13 11 6 5 5 5 4 5 7 7 1 4 5 5 6 4 4 2 2 4 6 3 3 8 4 3 5 7 7 6 2 3 3 2 5 7 5 4 2 3 4 5 5 5 5 6 6 6 6
4 15 20 16 12 8 6 6 5 6 5 7 6 6 2 5 4 1 2 7 4 4 3 3 3 6 5 6 4 3 6 1 5 8 6 5 5 3 6 5 4 5 4 4 4 3 1 4 3 3 3 3 5 8
12 14 17 16 10 4 5 5 4 5 8 6 4 3 3 3 3 2 1 3 2 1 2 3 4 4 2 4 2 5 4 4 4 5 5 5 5 4 3 4 3 5 5 4 5 4 5 4 4 4 4 5 4 4
17 18 15 9 4 5 2 4 2 5 3 3 6 5 3 3 3 4 3 5 6 6 6 5 3 4 5 7 9 5 3 1 3 1 6 4 6 2 6 6 4 4 3 2 2 2 1 3 6 5 4 4 3 4
12 8 6 5 3 4 5 4 5 1 4 3 6 4 2 2 4 1 8 4 5 2 6 2 3 6 10 5 6 5 4 7 6 6 8 6 8 5 5 4 4 2 2 3 3 4 2 4 2 2 2 1 5 4
10 10 2 4 3 4 4 3 1 1 2 3 2 4 2 2 3 3 4 5 4 3 2 2 4 5 5 6 6 7 7 6 5 5 5 3 3 3 2 2 1 1 3 3 2 1 2 2 1 1 3 4 3 3
7 5 3 4 5 3 5 3 3 3 4 5 3 3 3 3 4 6 4 2 1 6 2 6 7 5 5 5 5 4 5 5 6 4 5 4 3 0 1 1 1 2 1 2 3 3 6 1 6 5 7 5 4 4
2 3 3 3 4 4 5 5 4 2 3 4 4 4 3 4 5 4 3 1 3 5 2 3 3 5 6 4 3 5 3 2 1 2 2 2 1 1 2 3 4 3 7 5 7 5 6 4 3 7 7 4 5 3
3 5 2 4 3 3 1 4 4 2 3 4 2 2 3 3 3 3 1 5 1 3 4 4 4 1 4 5 2 2 2 1 2 1 2 3 2 2 3 6 9 9 5 4 5 5 3 2 1 5 6 8 5 4
2 4 3 3 4 1 0 3 4 7 5 3 2 4 3 3 3 2 3 2 3 2 4 6 4 3 1 2 3 1 1 1 2 3 4 6 7 7 4 1 2 6 8 6 2 2 7 4 4 1 1 3 3 7
2 1 3 3 0 2 2 1 3 1 1 2 3 4 2 2 2 1 5 6 4 3 3 3 2 2 1 3 3 3 3 4 6 3 3 5 4 4 4 1 3 5 4 5 4 2 2 3 6 5 2 1 4 3
2 2 3 4 2 3 2 2 5 3 3 2 1 1 2 0 2 4 3 3 2 3 0 1 2 2 2 3 3 4 6 7 10 10 4 7 7 8 10 4 2 4 4 6 3 2 3 5 9 8 5 4 5 1
3 2 2 5 5 2 2 0 3 4 5 5 4 4 4 3 4 3 3 2 2 1 2 2 2 3 3 4 6 8 7 9 6 4 5 4 3 2 3 6 6 7 6 6 2 3 6 4 2 4 7 7 5 0
2 2 3 5 2 1 2 3 2 2 3 2 4 2 4 4 4 5 5 4 3 3 7 9 5 5 6 8 5 6 8 11 8 4 6 8 6 4 8 10 8 5 7 10 7 5 3 6 7 6 6 5 5 8
2 2 2 1 2 2 4 5 3 3 2 2 1 1 1 2 2 3 4 3 4 6 5 3 4 5 5 3 2 5 7 4 5 3 4 4 7 7 9 5 3 1 3 2 3 7 7 9 3 9 5 4 11 7
2 1 0 2 2 3 3 2 1 1 1 1 2 3 2 3 1 3 4 6 7 5 7 6 6 7 6 8 11 5 6 3 4 6 9 8 8 7 3 3 2 6 6 4 4 5 6 7 7 6 4 3 4 6
2 3 4 2 1 2 4 4 5 5 5 4 5 9 11 9 7 6 7 8 7 7 6 10 11 6 10 2 5 7 9 7 7 8 9 9 8 9 8 3 5 6 3 3 8 6 2 3 8 9 8 8 8 6
Wind_Direction
187 192 192 201 214 207 208 215 233 256 285 316 334 339 342 344 349 340 306 24 332 310 4 7 344 328 334 340 337 358 284 207 258 235 243 252 279 310 286 251 238 232 228 227 251 234 225 10 360 55 188 311 144 148
183 187 190 197 203 204 200 206 222 241 267 299 327 337 339 342 344 340 270 38 342 268 330 326 289 290 278 311 305 314 307 354 354 312 13 335 291 342 349 296 308 221 100 28 317 84 60 92 78 29 131 304 57 91
180 184 186 191 197 196 195 199 214 229 250 279 315 331 334 337 338 345 306 330 293 252 259 228 203 143 266 262 322 305 51 351 303 352 298 284 76 348 6 321 327 126 143 108 284 53 72 94 114 121 65 319 121 124
178 180 181 188 193 190 191 192 207 219 239 266 298 318 329 329 327 329 291 345 285 294 279 124 149 204 195 116 285 7 334 316 280 277 296 307 341 70 163 305 313 314 296 193 166 170 144 122 82 108 123 265 99 105
175 175 179 184 183 185 186 188 198 212 229 253 280 306 320 321 318 303 267 297 306 311 327 6 161 155 189 162 215 201 320 309 299 283 256 277 28 7 312 143 359 353 350 322 118 114 136 112 150 152 158 143 148 134
172 173 175 176 179 182 185 184 191 207 221 241 274 297 308 314 321 282 200 135 17 328 275 271 105 171 181 192 232 233 267 253 277 325 289 341 73 342 300 329 155 285 322 353 321 130 118 122 154 122 128 148 151 137
171 172 175 173 176 179 181 179 185 200 218 233 264 283 300 304 302 304 350 356 332 303 256 257 209 148 194 195 227 231 197 255 254 279 273 240 317 309 273 286 13 21 21 354 326 355 116 144 114 77 67 68 67 68
168 171 173 170 173 173 173 171 179 189 209 232 262 289 294 291 276 258 159 230 281 272 277 270 157 184 177 217 228 211 256 233 199 252 191 261 122 27 261 259 343 42 28 23 324 337 18 57 70 57 48 40 40 50
168 168 171 168 164 164 164 169 172 181 198 239 282 295 279 218 238 69 118 203 246 294 299 248 274 58 180 240 254 177 215 267 238 206 241 207 213 211 230 246 285 165 284 149 286 315 317 30 94 84 90 53 8 47
166 170 168 161 156 155 160 163 165 168 190 264 260 206 216 62 131 155 173 196 197 206 227 268 285 203 231 184 233 218 325 248 240 219 223 196 233 228 206 212 216 284 285 252 288 274 296 353 120 126 132 188 193 184
168 163 157 151 146 148 158 159 153 150 188 216 228 29 81 125 219 222 199 216 187 221 208 231 267 307 46 329 34 0 20 338 294 270 202 212 214 201 115 119 216 332 295 283 217 316 315 87 70 64 284 202 176 163
172 159 155 151 151 162 165 162 159 198 166 329 308 273 147 215 230 215 200 214 232 225 167 211 207 239 110 359 166 183 203 234 208 357 274 245 103 105 117 108 83 66 60 32 16 10 13 43 50 128 174 0 54 80
107 132 138 144 154 157 161 164 183 253 311 242 231 194 185 129 93 213 189 196 205 206 120 221 152 261 111 276 264 131 37 291 309 289 211 104 206 112 103 126 110 90 97 113 89 17 8 17 41 72 38 11 25 352
118 113 112 126 143 150 155 168 191 240 265 227 166 349 207 196 220 212 213 225 114 173 169 195 180 199 193 151 259 267 254 312 132 1 295 80 124 101 89 81 64 25 9 16 12 358 338 12 21 359 356 12 349 334
132 133 138 150 168 156 155 163 180 227 267 229 207 206 206 252 216 230 87 117 65 122 130 189 201 227 167 210 118 280 256 235 343 54 350 159 115 124 87 67 48 53 17 1 354 340 348 357 340 317 7 354 336 27
136 129 133 153 139 140 144 164 181 240 241 245 254 241 185 206 208 230 138 227 139 209 162 224 290 242 93 303 222 214 253 39 50 69 106 50 92 99 60 47 40 33 1 357 344 343 326 320 340 341 352 32 40 36
153 81 145 139 143 153 184 207 220 237 233 237 217 260 229 228 312 181 137 66 101 95 196 30 264 219 313 340 253 7 326 110 121 112 69 339 93 90 25 38 31 352 344 347 317 336 304 3 40 41 41 26 37 68
61 133 139 148 158 166 180 220 228 207 226 237 238 200 187 91 335 304 192 147 221 135 202 263 303 226 247 271 58 64 333 110 118 138 159 156 102 19 29 12 351 355 355 3 19 310 216 55 31 40 41 23 79 80
136 137 154 178 210 247 168 196 265 206 229 206 243 163 173 205 93 321 21 138 246 4 286 270 265 257 335 19 349 128 104 99 144 174 138 124 101 74 43 2 315 339 2 7 12 357 20 57 37 26 44 59 79 57
138 147 174 191 330 262 171 137 251 265 240 206 182 169 165 110 258 224 252 211 194 214 226 229 332 59 110 242 258 64 66 64 338 0 146 120 131 79 70 359 6 1 347 347 352 247 44 89 52 53 53 72 65 58
161 145 169 241 241 281 287 173 224 229 314 275 191 141 104 142 249 192 242 241 229 120 248 237 176 123 261 26 32 1 32 18 358 0 0 342 14 21 7 16 344 356 337 359 329 92 95 65 54 42 155 100 87 120
115 180 208 205 300 269 280 283 239 338 270 265 193 117 138 197 179 226 252 248 217 233 27 43 40 33 86 48 47 13 21 350 314 293 215 154 335 15 15 0 337 13 13 351 340 49 100 153 46 73 252 153 197 224
172 216 246 185 211 196 252 218 213 224 191 184 219 170 171 206 177 183 237 187 132 135 260 56 65 31 13 8 7 334 353 336 301 342 57 56 70 45 262 331 307 280 279 310 223 144 112 143 217 238 258 240 210 208
135 259 264 264 204 229 146 180 207 200 178 172 187 130 206 165 198 226 164 306 40 76 116 107 284 255 176 136 340 63 20 324 294 101 115 131 118 13 256 246 234 193 223 168 132 155 176 204 285 279 294 36 22 79
261 291 175 291 232 150 122 171 89 347 125 123 170 155 143 178 210 65 338 284 295 64 91 158 226 324 319 86 69 28 13 325 290 139 165 168 160 281 268 242 218 216 205 185 171 174 198 208 312 19 360 13 334 31
321 203 164 252 117 63 244 175 143 151 192 185 141 114 187 236 114 236 269 45 41 45 343 13 341 290 129 353 114 223 54 221 265 136 148 186 194 214 216 110 279 208 193 184 25 74 134 230 313 230 24 152 243 275
275 239 222 241 197 251 267 102 39 108 115 195 204 174 131 231 192 188 95 42 40 36 31 341 342 329 165 155 142 238 232 221 243 249 199 218 185 217 247 291 71 10 274 136 138 213 264 341 296 330 26 315 214 41
290 300 152 163 224 213 205 220 174 220 235 232 65 237 212 2 53 55 57 25 15 310 5 278 344 288 189 183 214 222 216 225 242 241 226 254 210 200 238 146 177 59 15 22 24 333 37 308 328 307 289 322 314 93
285 289 252 249 229 168 252 108 327 12 354 338 9 3 18 37 25 25 33 338 312 53 248 126 231 202 218 224 223 239 237 258 167 210 269 238 208 93 301 179 176 190 194 162 151 324 336 299 289 316 305 297 316 88
155 315 266 332 43 13 346 348 344 57 36 41 316 309 330 338 355 340 302 266 215 207 182 188 177 180 224 229 218 244 198 199 222 216 217 250 258 188 193 207 211 215 177 192 179 178 205 264 221 247 274 333 322 284
48 297 253 313 306 282 4 325 4 71 37 52 74 252 269 315 297 233 231 204 208 184 179 228 243 250 262 104 336 307 295 326 335 243 229 341 163 183 214 214 189 195 247 210 202 215 206 229 268 291 250 198 229 233
45 65 189 245 276 334 344 11 0 352 143 216 229 204 209 220 179 169 189 190 210 212 65 332 273 252 260 181 221 202 194 188 291 343 20 19 21 346 176 229 231 181 219 269 301 289 224 261 291 305 312 209 43 349
193 198 220 250 214 220 205 198 183 178 219 204 183 177 158 144 141 175 174 212 223 236 197 195 241 271 263 287 152 202 203 86 98 74 73 58 35 357 317 333 2 312 270 331 318 312 291 19 357 1 345 326 319 318